[Date Prev][Date Next][Thread Prev][Thread Next] - [Date Index][Thread Index][Author Index]
2 Line ISS Keps 3-9
- Subject: [sarex] 2 Line ISS Keps 3-9
- From: "Dave Larsen PhD" <doc@xxxxxxxxxxx>
- Date: Tue, 9 Mar 2004 02:28:27 -0800
ISS
1 25544U 98067A 04069.38576389 .00012413 00000-0 12115-3 0 3390
2 25544 51.6284 114.0155 0010893 254.8257 301.9339 15.66577776302650
----
Via the sarex mailing list at AMSAT.ORG courtesy of AMSAT-NA.
To unsubscribe, send "unsubscribe sarex" to Majordomo@amsat.org
AMSAT Home